This is the latest recevied weather packets stored in our database for station/object K5MGY. If no packets are shown the sender has not sent any weather packets the latest 10 day(s).
| Time | Temp. | Humidity | Pressure | Rain* | Wind** | Luminosity | Snow |
|---|---|---|---|---|---|---|---|
| 1777998321 | 27.78° C | 67% | 1029.2 hPa | 0 mm | - | 230 W/m² | - |
| 1777998018 | 27.22° C | 68% | 1029.4 hPa | 0 mm | - | 511 W/m² | - |
| 1777997715 | 27.22° C | 69% | 1029.1 hPa | 0 mm | - | 456 W/m² | - |
| 1777997412 | 27.22° C | 69% | 1029.3 hPa | 0 mm | - | 398 W/m² | - |
| 1777997110 | 27.22° C | 69% | 1029.4 hPa | 0 mm | - | 348 W/m² | - |
| 1777996807 | 26.67° C | 72% | 1029.2 hPa | 0 mm | - | 423 W/m² | - |
| 1777996503 | 26.11° C | 71% | 1029.5 hPa | 0 mm | - | 289 W/m² | - |
| 1777996199 | 26.11° C | 73% | 1029.4 hPa | 0 mm | - | 233 W/m² | - |
| 1777995896 | 25.56° C | 73% | 1029.3 hPa | 0 mm | - | 227 W/m² | - |
| 1777995592 | 25.56° C | 73% | 1029.4 hPa | 0 mm | - | 198 W/m² | - |
| 1777995290 | 25.56° C | 73% | 1029.4 hPa | 0 mm | - | 219 W/m² | - |
| 1777994986 | 25.56° C | 73% | 1029.6 hPa | 0 mm | - | 156 W/m² | - |
| 1777994684 | 26.11° C | 73% | 1029.4 hPa | 0 mm | - | 161 W/m² | - |
| 1777994384 | 26.11° C | 71% | 1029.6 hPa | 0 mm | - | 195 W/m² | - |
| 1777994079 | 25.56° C | 73% | 1029.5 hPa | 0 mm | - | 380 W/m² | - |
| 1777993777 | 25.56° C | 74% | 1029.5 hPa | 0 mm | - | 310 W/m² | - |
| 1777993474 | 25° C | 75% | 1029.6 hPa | 0 mm | - | 357 W/m² | - |
| 1777993173 | 25° C | 75% | 1029.5 hPa | 0 mm | - | 202 W/m² | - |
| 1777992872 | 24.44° C | 76% | 1029.1 hPa | 0 mm | - | 174 W/m² | - |
| 1777992569 | 24.44° C | 77% | 1029.3 hPa | 0 mm | - | 115 W/m² | - |
| 1777992267 | 24.44° C | 76% | 1029.4 hPa | 0 mm | - | 125 W/m² | - |
| 1777991965 | 24.44° C | 77% | 1029.6 hPa | 0 mm | - | 90 W/m² | - |
| 1777991662 | 23.89° C | 77% | 1029.7 hPa | 0 mm | - | 137 W/m² | - |
| 1777991359 | 23.89° C | 78% | 1029.8 hPa | 0 mm | - | 94 W/m² | - |
| 1777991056 | 23.89° C | 78% | 1029.4 hPa | 0 mm | - | 100 W/m² | - |
* Rain latest hour (hover to see other rain measurements)
** Current wind speed in m/s (hover to see current wind gust speed)